User: anonymous   Login
Location: Bushey
(51.6333°N, 0.3667°W)
Time: 23:36:47
(UTC+00:00)
Language:

Cosmos 1844 - Orbit

View from above orbital plane
View from above orbital plane
View from above satellite
View from above satellite

Ground track
Ground track

The orbit data is extracted from the following two-line orbital elements,

1 17973U 87041A   21127.83142691  .00000343  00000-0  20472-3 0  9992
2 17973  70.8976 159.3549 0030274 157.9029 202.3405 14.14120977753772
Epoch (UTC): 07 May 2021 19:57:15
Eccentricity: 0.0030274
inclination: 70.8976°
perigee height: 823 km
apogee height: 867 km
right ascension of ascending node: 159.3549°
argument of perigee: 157.9029°
revolutions per day: 14.14120977
mean anomaly at epoch: 202.3405°
orbit number at epoch: 75377

The dashed part of the orbit path shows where the satellite is in the earth's shadow,  

DLR